This is the latest recevied weather packets stored in our database for station/object KD8DNS. If no packets are shown the sender has not sent any weather packets the latest 10 day(s).
| Time | Temp. | Humidity | Pressure | Rain* | Wind** | Luminosity | Snow |
|---|---|---|---|---|---|---|---|
| 1788359064 | 31.11° C | 69% | 1021.9 hPa | 0 mm | - | 392 W/m² | - |
| 1788358759 | 30.56° C | 70% | 1021.9 hPa | 0 mm | - | 378 W/m² | - |
| 1788358455 | 30° C | 72% | 1021.9 hPa | 0 mm | - | 362 W/m² | - |
| 1788358154 | 30° C | 71% | 1022 hPa | 0 mm | - | 330 W/m² | - |
| 1788357850 | 30° C | 73% | 1022 hPa | 0 mm | - | 354 W/m² | - |
| 1788357544 | 30° C | 73% | 1021.6 hPa | 0 mm | - | 406 W/m² | - |
| 1788357240 | 29.44° C | 74% | 1021.9 hPa | 0 mm | - | 371 W/m² | - |
| 1788356938 | 28.89° C | 75% | 1022 hPa | 0 mm | - | 348 W/m² | - |
| 1788356638 | 28.89° C | 76% | 1022 hPa | 0 mm | - | 314 W/m² | - |
| 1788356323 | 28.33° C | 78% | 1021.7 hPa | 0 mm | - | 281 W/m² | - |
| 1788356023 | 27.78° C | 80% | 1021.7 hPa | 0 mm | - | 271 W/m² | - |
| 1788355718 | 27.78° C | 81% | 1021.7 hPa | 0 mm | - | 259 W/m² | - |
| 1788355413 | 27.22° C | 81% | 1021.7 hPa | 0 mm | - | 230 W/m² | - |
| 1788355109 | 26.67° C | 82% | 1022.1 hPa | 0 mm | - | 236 W/m² | - |
| 1788354806 | 26.67° C | 83% | 1021.7 hPa | 0 mm | - | 234 W/m² | - |
| 1788354505 | 26.11° C | 84% | 1021.9 hPa | 0 mm | - | 222 W/m² | - |
| 1788354201 | 25.56° C | 85% | 1021.6 hPa | 0 mm | - | 200 W/m² | - |
| 1788353896 | 25.56° C | 86% | 1021.8 hPa | 0 mm | - | 179 W/m² | - |
| 1788353592 | 25° C | 87% | 1021.9 hPa | 0 mm | - | 163 W/m² | - |
| 1788353288 | 25° C | 88% | 1021.8 hPa | 0 mm | - | 159 W/m² | - |
| 1788352984 | 24.44° C | 88% | 1021.7 hPa | 0 mm | - | 141 W/m² | - |
| 1788352684 | 24.44° C | 89% | 1021.5 hPa | 0 mm | - | 130 W/m² | - |
| 1788352380 | 23.89° C | 90% | 1021.5 hPa | 0 mm | - | 122 W/m² | - |
| 1788352078 | 23.33° C | 92% | 1021.5 hPa | 0 mm | - | 105 W/m² | - |
| 1788351788 | 23.33° C | 92% | 1021.5 hPa | 0 mm | - | 41 W/m² | - |
* Rain latest hour (hover to see other rain measurements)
** Current wind speed in m/s (hover to see current wind gust speed)